Location: NJAA Observatory
(40.6819°N, 74.8979°W)
Time: 05:23:02
(UTC-04:00)

Daily predictions for brighter satellites

Satellite Brightness Start Highest point End
(mag) Time Altitude Azimuth Time Altitude Azimuth Time Altitude Azimuth
CZ-4C R/B 4.4 02:45:18 21° NNE 02:45:18 21° NNE 02:47:13 10° NNE
Cosmos 2227 Rocket 4.4 03:06:56 19° N 03:06:56 19° N 03:08:31 10° NNE
SL-16 R/B 4.3 03:19:07 22° NNW 03:19:07 22° NNW 03:21:03 10° NNW
Resurs 1-4 Rocket 4.1 03:12:20 10° NNE 03:14:16 23° NNE 03:14:16 23° NNE
Cosmos 2297 Rocket 4.1 03:49:01 19° NNW 03:49:01 19° NNW 03:51:09 10° N
Cosmos 1655 Rocket 4.3 03:40:24 10° N 03:46:03 64° NE 03:46:03 64° NE
CZ-2D R/B 3.8 03:44:31 10° N 03:46:36 24° N 03:46:36 24° N
Cosmos 1140 Rocket 4.3 03:57:28 49° ENE 03:57:28 49° ENE 04:01:39 10° NNE
Cosmos 1607 4.5 04:12:56 45° SSE 04:14:18 53° ESE 04:20:27 10° NE
Cosmos 1954 Rocket 4.2 04:18:53 63° N 04:18:53 63° N 04:23:25 10° NNE
Cosmos 2279 Rocket 4.0 04:21:19 60° NW 04:21:19 60° NW 04:26:54 10° N
ARIANE 5 R/B 4.1 04:18:05 10° N 04:20:18 22° NNW 04:20:18 22° NNW
Meteor 1-5 Rocket 4.5 04:17:22 10° NNW 04:22:17 58° NW 04:22:17 58° NW
Cosmos 614 Rocket 3.9 04:24:36 78° NNE 04:24:36 78° NNE 04:29:23 10° NNE
CZ-4C R/B 4.0 04:30:30 18° NW 04:30:54 18° NNW 04:35:05 10° NNE
Okean 1 4.3 04:32:24 42° ESE 04:32:56 44° E 04:36:45 10° NNE
Cosmos 1975 Rocket 3.4 04:35:18 56° SE 04:35:56 64° E 04:40:18 10° NNE
ADEOS II 2.0 04:37:18 10° NNE 04:42:36 84° ESE 04:44:36 39° S
Atlas Centaur 2 3.4 04:43:02 27° S 04:43:18 27° S 04:47:40 10° ESE
CZ-4B R/B 3.3 04:43:06 10° NNE 04:47:11 60° E 04:48:17 42° SSE
Cosmos 1943 3.1 04:42:57 10° NNW 04:48:42 83° WSW 04:54:22 10° SSE
DELTA 2 R/B (1) 3.5 04:50:19 55° WSW 04:51:36 82° S 04:57:11 10° E
ATLAS 3B R/B 3.7 04:49:21 10° S 04:56:23 46° ESE 05:03:09 10° NE
Resurs 1-4 Rocket 4.1 04:54:04 10° NNW 04:55:21 13° NW 04:55:21 13° NW
Cosmos 1743 4.3 04:53:37 10° N 04:57:17 37° ENE 05:00:54 10° SSE
Cosmos 2263 Rocket 2.1 04:55:52 39° SW 04:58:01 77° WNW 05:03:46 10° NNE
Cosmos 371 Rocket 4.4 04:53:24 10° N 04:58:06 45° ENE 05:02:45 10° SE
MOS 1-B 4.2 04:53:18 10° N 04:59:05 71° WNW 05:02:10 28° SSW
Meteor 1-12 Rocket 4.5 04:54:50 10° N 05:00:53 79° E 05:06:54 10° SSE
Abrixas rocket 3.0 05:03:43 42° N 05:03:43 42° N 05:06:35 10° NE
Cosmos 1437 Rocket 2.7 05:09:35 10° NNW 05:13:28 57° W 05:17:22 10° S
ASTEX 1 3.8 05:11:38 10° N 05:16:13 39° WNW 05:17:34 32° WSW
Nadezhda 2 Rocket 4.5 05:12:36 10° N 05:19:00 84° W 05:25:16 10° S
Meteor PRIRODA 4.2 05:16:15 10° NNE 05:19:54 60° E 05:23:33 10° S
Okean O Rocket 1.5 05:18:00 10° N 05:22:20 69° WNW 05:25:53 15° SSW
ATLAS 5 CENTAUR R/B 4.5 05:19:44 10° NNW 05:24:36 26° NE 05:29:50 10° E
Cosmos 1741 Rocket 4.4 05:25:26 26° WSW 05:27:49 42° WNW 05:32:48 10° N
USA 215 4.2 05:22:34 10° E 05:28:42 45° NNE 05:34:50 10° NW
TELKOM 3 3.1 05:29:12 54° NW 05:29:15 54° NNW 05:31:22 10° NE
Meteor 1-4 Rocket 2.6 05:27:52 10° N 05:31:22 73° E 05:34:49 10° SSE
Cosmos 2266 Rocket 4.5 05:26:57 10° NNW 05:32:47 39° W 05:38:37 10° SSW
CZ-4B R/B 3.0 05:28:17 10° N 05:33:35 74° WNW 05:38:52 10° SSW
Meteor 2-4 Rocket 4.2 05:30:19 10° S 05:35:45 64° E 05:41:25 10° NNE
USA 116 4.0 05:33:02 10° SSE 05:36:14 54° ENE 05:39:18 10° N
Meteor 1-19 Rocket 4.3 05:30:45 10° S 05:36:38 89° W 05:42:29 10° N
Meteor 2-11 Rocket 4.4 05:33:02 10° S 05:39:06 84° W 05:45:12 10° N
Cosmos 468 Rocket 3.9 05:37:01 10° NNW 05:42:21 77° WSW 05:47:38 10° SSE
SL-8 R/B 4.1 05:39:22 21° W 05:42:24 52° NNW 05:47:07 10° NE
COSMO-SKYMED 1 3.9 05:45:14 10° SE 05:49:20 43° ENE 05:53:28 10° N
Meteor 2-9 Rocket 4.1 05:52:35 10° N 05:58:01 87° W 06:03:34 10° S
Tiangong 1 0.8 05:56:24 18° W 05:58:07 53° SSW 06:00:45 10° ESE
GEOS 3 Rocket 3.9 05:53:37 10° SE 05:58:47 72° NE 06:04:04 10° NNW
Cosmos 1975 4.1 05:56:59 10° NW 06:00:02 20° W 06:03:04 10° SW
Cosmos 1763 Rocket 3.5 05:57:48 10° NNW 06:03:07 87° WSW 06:08:26 10° SSE
COSMOS 2406 3.7 05:57:52 10° NNW 06:03:39 68° ENE 06:09:23 10° SSE
USA 238 DEB 3.7 05:58:33 10° SW 06:05:29 80° NW 06:12:32 10° NNE
USA 238 3.7 05:58:39 10° SW 06:05:36 81° NW 06:12:39 10° NNE
MTI 4.0 06:05:49 10° S 06:08:57 48° W 06:12:08 10° NNW
EO 1 Del DPAF 3.2 06:07:00 10° S 06:10:46 61° WSW 06:14:34 10° NNW
NOAA 6 4.2 06:05:33 10° NNE 06:10:47 85° ESE 06:15:59 10° SSW
Cosmos 2278 Rocket 4.0 06:08:22 10° S 06:13:27 36° ESE 06:18:34 10° NE
ATLAS CENTAUR R/B 3.2 06:11:52 10° S 06:15:20 30° ESE 06:18:41 10° NE
Meteor 1-31 Rocket 3.6 06:12:47 10° N 06:16:14 31° WNW 06:19:39 10° SW
Meteor 1-15 Rocket 4.3 06:11:57 10° N 06:17:38 85° E 06:23:12 10° S
Cosmos 1455 Rocket 4.3 06:17:15 10° NW 06:20:25 20° W 06:23:35 10° SW
ADEOS II 3.9 06:19:14 10° NNW 06:21:35 13° WNW 06:23:56 10° W
Okean-O 2.7 06:19:28 10° N 06:23:51 62° WNW 06:28:12 10° SSW
Cosmos 1666 3.9 06:22:16 10° NW 06:25:07 21° W 06:27:59 10° SW
Meteor 1-23 Rocket 4.2 06:20:45 10° SSW 06:26:15 67° W 06:31:49 10° N
CZ-3 R/B 3.1 06:16:26 10° WSW 06:29:41 33° SSW 06:34:22 10° SE
